User: anonymous   Login
Location: Unspecified
(0.0000°N, 0.0000°E)
Time: 18:08:56
(UTC+00:00)
Language:

UHETSAT - Orbit

View from above orbital plane
View from above orbital plane
View from above satellite
View from above satellite

Ground track
Ground track

The orbit is defined by the following mean orbital elements,

1 58466U          26145.51084880 +.00000000 +00000-0 +22999-3 0 00008
2 58466  97.3493 213.1874 0013808  38.9531 321.2702 15.30864490    08
Epoch (UTC): 25 May 2026 12:15:37
Eccentricity: 0.0013808
inclination: 97.3493°
perigee height: 464 km
apogee height: 483 km
right ascension of ascending node: 213.1874°
argument of perigee: 38.9531°
revolutions per day: 15.30864490
mean anomaly at epoch: 321.2702°

The dashed part of the orbit path shows where the satellite is in the earth's shadow,  

DLR